Wind_Speed
45 49 53 56 58 60 61 61 63 63 61 39 48 52 43 45 49 52 49 49 42 41 41 53 42 47 45 46 41 39 36 32 28 27 26 25 21 20 18 17 15 12 9 9 9
49 51 55 59 61 63 65 66 67 67 62 52 37 51 55 38 45 47 51 46 47 45 48 39 46 42 54 46 43 41 39 31 33 32 28 26 24 23 20 19 17 13 11 11 11
52 53 56 61 65 66 68 69 69 73 72 71 63 44 45 44 51 47 47 50 51 50 50 49 41 33 36 43 44 41 38 38 31 30 31 29 26 24 21 20 19 15 13 13 13
54 55 57 61 66 69 70 71 73 76 78 82 66 63 53 41 49 48 51 47 47 40 45 38 46 41 43 47 42 42 40 35 34 35 33 28 28 25 26 26 21 18 17 16 16
56 57 55 59 65 70 71 72 75 77 84 74 64 60 59 52 50 48 48 45 47 40 47 37 32 37 52 46 45 43 40 39 35 37 35 32 30 31 30 28 24 22 21 20 17
51 48 50 56 61 66 69 71 74 79 87 88 78 68 61 60 60 50 50 56 50 47 43 41 37 44 50 54 53 50 43 44 41 41 39 36 34 33 32 27 26 25 25 23 19
39 39 44 51 52 57 62 66 71 73 85 86 81 76 68 62 62 64 54 52 52 51 43 43 42 46 51 45 51 57 49 46 46 45 43 41 38 35 30 28 28 28 28 26 22
27 29 32 39 43 41 48 56 64 68 62 81 81 79 80 70 65 59 54 58 54 51 50 47 40 42 46 44 53 52 48 45 49 45 45 41 36 36 32 31 31 31 31 28 25
25 28 29 30 34 35 36 46 54 52 57 67 84 81 81 80 73 55 56 48 50 56 59 55 44 40 40 44 48 48 48 52 45 42 41 41 36 41 35 34 35 34 33 30 28
26 23 24 28 29 30 30 36 48 49 57 54 83 91 84 82 76 62 61 51 45 43 61 58 56 51 46 49 45 56 54 49 46 45 45 45 43 36 37 36 38 37 36 33 29
26 20 21 27 27 28 31 32 44 45 40 59 47 82 82 85 79 67 57 59 56 45 54 61 60 57 55 45 45 42 46 50 51 44 50 49 45 41 41 42 41 37 38 34 29
22 20 20 25 29 28 29 30 45 42 43 49 56 60 67 71 84 83 61 58 58 50 52 51 62 62 62 58 53 48 44 39 41 35 57 56 50 48 45 44 42 39 39 35 32
23 20 20 22 29 27 28 31 50 58 36 34 42 47 48 56 70 76 77 64 57 59 50 55 54 59 58 59 61 57 56 51 51 49 41 42 44 43 43 44 46 44 40 38 35
23 19 19 18 22 23 24 28 47 50 48 51 45 38 37 40 48 50 55 55 66 60 55 50 56 53 52 56 58 60 57 53 53 51 47 44 42 45 46 46 43 44 43 40 43
24 19 17 16 19 22 23 27 36 50 44 52 49 38 43 33 37 38 37 32 47 57 54 54 45 48 49 50 52 49 51 55 55 52 49 45 47 46 46 45 48 50 51 52 50
24 19 17 15 16 19 21 29 32 43 50 32 45 50 42 36 29 34 38 42 42 38 47 52 50 45 46 47 46 50 46 45 47 48 53 52 52 49 48 49 47 49 50 49 49
24 19 15 13 15 17 21 41 25 35 50 46 25 34 41 40 31 32 29 30 37 41 40 46 52 51 47 44 44 45 42 43 43 46 50 50 53 52 53 50 49 44 46 50 51
25 19 15 13 16 19 21 46 33 20 49 48 32 19 38 42 39 39 37 34 32 36 37 41 47 47 48 48 48 47 44 43 42 42 44 46 49 47 50 49 52 50 47 47 47
24 19 15 13 14 21 25 42 36 19 36 49 37 26 31 37 44 36 35 36 31 31 35 35 40 41 41 43 46 49 51 49 49 49 51 52 51 49 50 52 53 50 48 49 50
25 20 16 12 14 20 23 44 31 30 27 40 37 31 33 33 38 31 35 35 30 33 36 38 37 39 41 40 44 47 47 46 48 51 54 56 57 54 52 52 54 53 53 50 48
24 19 15 12 12 17 21 37 41 14 18 31 35 35 38 35 36 41 36 32 33 34 33 35 35 37 38 38 38 38 38 40 41 43 47 54 55 59 59 58 56 55 53 51 47
22 19 16 13 10 15 18 19 45 33 15 17 25 29 31 40 39 39 37 39 38 33 30 30 32 34 36 35 36 37 37 37 38 39 41 45 48 50 51 52 50 49 47 48 50
20 18 14 12 10 9 15 20 20 31 41 20 15 20 18 26 31 35 41 42 38 38 38 35 36 34 35 36 36 36 36 36 39 40 37 39 36 41 44 46 46 45 47 50 53
16 16 14 12 9 9 11 14 19 17 27 43 27 15 26 26 27 22 27 27 24 33 38 35 35 35 36 35 32 33 32 32 35 34 34 33 30 37 40 41 42 45 48 50 55
14 14 13 12 9 9 9 12 14 19 19 24 43 42 22 27 25 30 28 26 26 27 29 36 37 37 37 36 36 33 31 32 33 30 39 32 38 38 41 46 51 54 55 57 57
13 12 12 10 9 8 8 8 10 13 18 20 27 40 43 38 24 21 31 25 29 29 30 32 32 37 35 36 37 38 39 39 40 41 45 44 46 43 47 51 56 59 59 58 59
12 11 9 8 9 9 9 9 10 11 12 14 15 22 43 42 37 30 28 31 36 34 31 30 30 31 34 38 41 44 43 40 39 41 44 47 46 48 49 52 53 53 55 57 53
Wind_Direction
256 251 248 244 242 238 234 227 222 224 222 212 223 213 221 231 223 222 233 237 233 237 224 212 206 210 213 223 216 216 216 212 212 215 223 228 229 231 226 229 235 243 258 274 269
260 252 247 244 240 238 233 228 220 220 213 210 195 204 199 208 217 218 226 235 231 241 252 217 215 221 228 223 218 216 213 212 213 215 218 221 225 230 227 226 231 242 258 266 271
263 256 247 242 239 234 232 229 221 217 215 206 219 194 198 210 220 222 224 228 233 233 233 233 203 211 222 217 218 218 214 213 208 218 219 218 220 227 231 233 234 240 246 255 260
268 261 253 244 237 233 229 227 222 216 216 219 221 206 207 208 212 208 208 220 218 215 221 238 225 213 228 221 215 218 219 215 213 217 219 224 226 229 229 233 236 240 246 250 258
270 264 254 243 235 230 226 224 222 216 214 210 212 227 222 229 226 213 219 211 211 217 220 220 216 223 218 215 219 223 220 218 216 217 222 229 227 229 230 229 233 239 246 249 253
268 260 248 233 232 228 225 221 221 217 214 216 214 221 224 230 224 220 217 215 221 213 211 220 221 215 219 220 218 225 222 223 222 223 228 231 229 231 230 233 241 244 248 251 257
266 252 238 226 224 228 225 219 218 216 216 218 220 225 223 220 226 229 223 224 221 214 214 216 222 222 216 230 235 220 223 223 226 228 228 229 226 228 231 234 240 242 246 254 257
244 229 222 219 218 221 223 218 217 216 218 216 212 213 213 215 208 211 216 222 223 214 215 212 214 221 219 228 219 217 219 224 225 229 227 224 226 230 232 235 237 242 245 247 255
220 220 216 217 217 219 223 220 215 214 214 218 213 205 207 208 210 198 200 205 219 222 224 227 212 220 220 218 214 219 218 221 219 219 225 227 224 231 231 235 238 241 245 250 253
217 207 212 211 209 212 218 215 209 211 214 216 216 215 206 204 209 207 196 194 207 220 223 225 222 215 219 222 218 222 230 221 218 221 224 228 228 230 232 236 240 243 249 251 252
207 203 203 204 207 210 214 212 201 204 222 219 215 221 224 220 215 201 199 197 200 205 225 225 221 221 221 215 218 211 214 220 228 237 235 230 225 229 234 236 236 240 245 249 250
201 206 206 202 202 205 210 207 194 188 199 219 222 228 226 229 223 210 200 205 200 201 212 222 220 221 227 229 227 225 225 226 222 233 235 231 231 230 232 235 238 239 244 248 248
205 207 206 211 200 201 207 204 190 194 189 192 218 228 230 234 233 225 219 215 209 204 203 214 219 221 228 229 232 233 239 242 234 240 240 234 229 234 237 238 241 240 246 250 252
202 202 200 211 198 193 200 205 198 190 198 200 182 184 196 220 228 233 238 235 233 224 220 212 212 218 222 228 232 233 237 242 242 246 247 242 239 235 239 245 248 250 252 256 262
196 197 195 197 199 193 198 204 197 209 206 203 214 214 212 216 217 218 224 223 231 237 231 224 216 216 219 222 229 234 237 239 242 245 248 248 248 246 249 252 251 252 255 258 262
192 194 192 189 191 193 191 183 184 200 201 205 208 220 223 217 219 229 235 233 231 225 223 228 225 225 223 224 222 230 235 237 239 238 240 245 252 256 255 252 251 255 260 263 262
194 193 190 187 188 187 182 173 179 201 198 196 198 209 216 220 210 208 205 210 220 224 223 229 229 227 225 227 228 228 231 235 234 235 246 243 244 251 254 258 260 258 260 262 264
192 190 188 187 184 185 184 176 175 196 199 201 199 198 205 203 199 210 222 219 218 216 219 223 225 228 231 233 234 238 238 240 242 243 244 247 247 248 253 257 260 262 260 260 263
187 188 188 189 189 188 184 184 193 161 196 198 203 200 204 205 208 208 214 206 205 211 216 217 218 221 222 227 233 234 238 240 244 244 246 247 251 252 251 254 257 261 265 267 267
185 185 182 179 185 186 183 196 183 189 159 192 201 195 200 198 200 198 200 211 220 215 212 215 219 217 219 221 227 233 235 238 243 248 250 251 252 256 258 262 263 267 268 269 270
177 175 175 174 171 180 188 200 191 158 146 171 171 182 200 193 194 204 205 211 212 209 211 213 215 219 218 221 225 230 233 238 241 245 251 252 252 254 256 260 263 264 266 268 267
171 170 171 173 162 174 186 192 210 205 165 171 170 162 173 188 182 186 196 204 207 211 211 209 213 219 220 222 227 230 234 236 237 241 244 250 253 257 259 262 263 265 267 272 271
169 171 175 171 172 164 177 194 197 219 222 182 176 209 190 198 195 193 189 199 208 209 213 216 221 223 224 225 229 233 237 239 242 248 253 253 256 258 259 263 266 270 271 270 270
169 178 184 183 180 179 173 183 204 213 221 224 217 198 201 222 202 206 212 211 204 202 208 215 217 222 225 225 228 232 236 240 245 247 253 254 257 260 266 269 275 273 271 270 270
158 177 187 195 193 195 189 186 194 211 224 224 227 234 224 204 195 201 212 217 217 223 223 217 221 225 228 229 229 232 238 246 251 255 254 258 259 264 271 274 271 271 273 274 276
134 151 159 174 187 180 192 179 187 199 208 218 229 224 231 239 236 230 213 212 210 213 217 222 229 233 237 242 247 251 254 258 260 260 264 266 266 266 268 268 269 273 274 277 279
111 118 124 129 137 146 155 160 173 188 209 216 223 227 228 236 241 238 233 222 225 227 227 229 234 241 246 252 255 257 259 259 261 263 266 267 270 267 269 271 273 275 276 276 282
Height
5658 5660 5662 5667 5671 5678 5686 5695 5704 5712 5719 5725 5729 5735 5743 5750 5753 5760 5767 5774 5778 5783 5789 5794 5801 5806 5810 5814 5822 5828 5832 5836 5841 5842 5845 5849 5851 5853 5854 5856 5858 5860 5860 5862 5863
5644 5646 5648 5651 5657 5663 5673 5683 5693 5701 5710 5718 5723 5729 5733 5740 5745 5752 5760 5766 5772 5778 5782 5789 5795 5801 5803 5809 5817 5821 5827 5833 5835 5837 5841 5844 5847 5850 5853 5854 5856 5857 5859 5860 5862
5628 5630 5633 5637 5641 5649 5658 5668 5681 5690 5701 5707 5714 5719 5724 5730 5739 5745 5752 5759 5765 5772 5776 5784 5789 5793 5800 5806 5811 5816 5822 5826 5831 5835 5838 5840 5844 5847 5849 5851 5853 5855 5856 5858 5860
5609 5612 5615 5619 5625 5633 5642 5653 5665 5678 5687 5697 5704 5708 5713 5724 5734 5739 5744 5753 5758 5765 5772 5778 5784 5789 5795 5799 5805 5811 5816 5822 5827 5830 5833 5838 5840 5843 5844 5847 5850 5851 5854 5855 5857
5591 5593 5597 5602 5608 5616 5627 5638 5650 5664 5675 5686 5691 5697 5706 5716 5726 5734 5739 5745 5752 5760 5766 5772 5778 5783 5788 5793 5799 5805 5812 5817 5821 5825 5828 5833 5836 5838 5840 5844 5846 5848 5850 5853 5854
5577 5578 5580 5587 5593 5601 5611 5624 5636 5649 5661 5672 5681 5690 5700 5710 5718 5724 5729 5736 5745 5754 5760 5766 5772 5777 5782 5788 5793 5799 5806 5812 5816 5820 5824 5828 5830 5834 5837 5841 5843 5844 5846 5849 5850
5564 5565 5567 5574 5581 5589 5597 5611 5622 5637 5646 5658 5669 5680 5694 5702 5708 5718 5722 5729 5738 5746 5752 5758 5765 5770 5776 5780 5785 5792 5799 5805 5811 5814 5818 5822 5826 5830 5833 5835 5838 5840 5842 5844 5846
5553 5557 5561 5566 5574 5581 5589 5600 5613 5625 5635 5646 5658 5673 5683 5695 5699 5709 5717 5722 5730 5738 5743 5749 5756 5762 5768 5773 5777 5783 5792 5799 5804 5808 5812 5817 5823 5825 5829 5831 5833 5835 5837 5839 5841
5550 5553 5557 5562 5569 5577 5584 5593 5605 5617 5628 5636 5646 5659 5668 5681 5695 5700 5707 5715 5722 5729 5736 5741 5749 5756 5762 5768 5772 5778 5784 5790 5796 5801 5807 5812 5818 5816 5823 5825 5827 5830 5832 5835 5837
5546 5549 5554 5559 5565 5573 5580 5587 5599 5610 5618 5628 5635 5644 5661 5676 5683 5693 5697 5706 5714 5720 5728 5736 5742 5749 5755 5762 5769 5771 5776 5783 5790 5795 5799 5804 5809 5814 5817 5820 5822 5825 5828 5830 5833
5542 5546 5551 5556 5562 5569 5577 5583 5594 5605 5612 5619 5632 5640 5651 5662 5669 5682 5689 5697 5705 5714 5720 5726 5734 5743 5751 5757 5758 5764 5770 5776 5780 5787 5792 5796 5801 5806 5810 5813 5816 5819 5822 5825 5829
5539 5544 5548 5553 5559 5565 5572 5579 5590 5603 5610 5616 5625 5631 5641 5647 5658 5670 5680 5687 5697 5707 5713 5718 5726 5733 5739 5743 5751 5758 5762 5768 5773 5779 5783 5787 5794 5798 5803 5807 5810 5812 5815 5820 5823
5538 5543 5547 5550 5555 5562 5569 5575 5584 5594 5602 5613 5621 5628 5635 5641 5650 5660 5670 5678 5687 5696 5705 5712 5717 5724 5730 5737 5744 5750 5756 5760 5766 5771 5777 5782 5787 5792 5797 5800 5802 5806 5809 5812 5816
5536 5541 5545 5549 5555 5559 5566 5571 5579 5586 5598 5602 5612 5622 5630 5635 5643 5651 5659 5669 5677 5689 5693 5702 5710 5715 5722 5729 5736 5742 5747 5752 5758 5763 5769 5776 5781 5786 5791 5794 5798 5801 5805 5808 5809
5535 5540 5544 5548 5552 5558 5564 5569 5577 5584 5592 5601 5605 5614 5622 5631 5640 5646 5655 5661 5670 5676 5687 5696 5703 5707 5714 5721 5728 5733 5738 5745 5751 5753 5759 5766 5771 5781 5783 5788 5792 5795 5796 5794 5797
5533 5538 5543 5548 5552 5556 5561 5567 5577 5582 5587 5596 5602 5610 5619 5626 5635 5641 5648 5655 5664 5670 5672 5684 5692 5700 5708 5714 5718 5727 5732 5736 5741 5745 5752 5759 5763 5774 5775 5781 5782 5781 5784 5787 5789
5532 5538 5544 5548 5551 5555 5560 5566 5572 5576 5587 5596 5601 5608 5616 5624 5631 5639 5644 5650 5657 5664 5669 5677 5683 5692 5700 5705 5711 5718 5724 5728 5732 5735 5745 5750 5755 5770 5768 5769 5770 5774 5777 5777 5778
5532 5538 5543 5547 5550 5554 5558 5565 5570 5573 5583 5593 5601 5604 5611 5619 5628 5631 5637 5643 5651 5656 5663 5670 5678 5684 5692 5697 5707 5712 5717 5721 5725 5732 5737 5739 5747 5756 5758 5760 5760 5762 5765 5766 5768
5533 5539 5543 5547 5550 5554 5559 5563 5567 5574 5583 5591 5597 5601 5606 5613 5621 5625 5633 5641 5645 5651 5658 5664 5668 5675 5683 5689 5694 5700 5707 5712 5717 5722 5726 5732 5741 5748 5748 5750 5751 5752 5753 5754 5755
5534 5540 5544 5547 5550 5554 5559 5561 5569 5573 5577 5588 5595 5597 5604 5609 5615 5620 5625 5633 5640 5647 5652 5658 5664 5670 5675 5680 5686 5693 5700 5705 5708 5714 5715 5725 5730 5737 5738 5739 5739 5740 5740 5741 5742
5536 5541 5546 5549 5551 5555 5559 5562 5567 5571 5575 5584 5587 5595 5602 5607 5612 5615 5621 5629 5636 5642 5648 5653 5659 5666 5669 5675 5682 5687 5691 5696 5703 5706 5710 5718 5727 5727 5729 5729 5730 5729 5728 5729 5730
5539 5544 5547 5551 5555 5555 5559 5563 5566 5570 5575 5579 5585 5589 5595 5604 5606 5611 5617 5626 5633 5638 5644 5646 5653 5660 5665 5672 5676 5681 5685 5689 5692 5699 5703 5708 5717 5718 5719 5719 5718 5718 5719 5719 5719
5543 5547 5550 5553 5556 5558 5561 5564 5567 5569 5575 5579 5584 5589 5594 5598 5604 5610 5616 5623 5627 5633 5637 5643 5648 5652 5658 5665 5669 5674 5679 5683 5686 5691 5699 5700 5711 5706 5706 5706 5707 5708 5708 5707 5705
5547 5550 5553 5556 5558 5561 5564 5566 5569 5571 5574 5578 5581 5587 5593 5598 5603 5606 5612 5617 5621 5628 5633 5638 5643 5650 5656 5660 5667 5670 5674 5678 5680 5687 5691 5695 5700 5695 5696 5696 5697 5696 5695 5695 5689
5549 5552 5555 5557 5560 5562 5565 5568 5571 5572 5573 5576 5582 5586 5591 5595 5598 5603 5609 5613 5616 5621 5627 5633 5639 5646 5650 5654 5660 5664 5669 5671 5675 5684 5678 5692 5688 5692 5691 5688 5684 5682 5684 5682 5680
5553 5555 5557 5559 5561 5563 5565 5568 5571 5574 5575 5578 5580 5584 5589 5592 5595 5598 5603 5606 5612 5617 5623 5628 5635 5639 5643 5647 5652 5656 5661 5664 5668 5672 5672 5678 5679 5682 5680 5678 5673 5674 5674 5673 5670
5558 5559 5561 5561 5563 5565 5566 5568 5571 5573 5576 5578 5580 5583 5586 5590 5593 5597 5601 5604 5610 5615 5619 5623 5626 5631 5636 5638 5642 5649 5653 5655 5657 5661 5662 5663 5669 5668 5670 5665 5667 5666 5661 5659 5659